CDT,Max TemperatureF,Mean TemperatureF,Min TemperatureF,Max Dew PointF,MeanDew PointF,Min DewpointF,Max Humidity, Mean Humidity, Min Humidity, Max Sea Level PressureIn, Mean Sea Level PressureIn, Min Sea Level PressureIn, Max VisibilityMiles, Mean VisibilityMiles, Min VisibilityMiles, Max Wind SpeedMPH, Mean Wind SpeedMPH, Max Gust SpeedMPH,PrecipitationIn, CloudCover, Events, WindDirDegrees
2014-3-1,30,18,5,21,8,0,81,71,61,30.45,30.29,30.07,10,7,1,21,14,27,0.13,8,Snow,6
2014-3-2,5,1,-3,-1,-7,-15,83,67,51,30.58,30.47,30.37,10,6,0,22,15,29,0.17,4,Snow,357
2014-3-3,16,5,-7,2,-7,-15,71,58,45,30.60,30.52,30.35,10,10,10,14,6,18,0.00,1,,100
2014-3-4,37,22,7,21,11,2,80,63,46,30.34,30.20,30.10,10,10,10,14,7,20,0.00,0,,145
2014-3-5,34,29,24,22,20,18,81,71,61,30.37,30.27,30.15,10,8,5,17,11,22,0.00,4,,62
2014-3-6,43,32,21,29,22,17,88,71,53,30.35,30.22,30.04,8,5,2,12,7,15,0.00,4,,113
2014-3-7,56,41,26,35,29,21,89,66,43,30.06,29.98,29.89,10,7,2,21,10,25,0.00,2,,261
2014-3-8,39,31,23,28,26,20,88,76,64,30.35,30.25,30.08,10,7,3,17,8,21,0.00,7,,352
2014-3-9,54,36,18,33,26,15,92,69,45,30.35,30.14,29.91,10,9,4,22,11,29,0.00,0,,220
2014-3-10,66,53,39,35,32,27,76,53,29,29.91,29.80,29.70,10,10,10,17,8,27,0.00,0,,226
2014-3-11,69,51,33,46,36,32,100,72,44,29.83,29.68,29.54,10,8,0,37,13,47,0.33,4,Fog-Rain-Snow-Thunderstorm,17
2014-3-12,40,33,25,33,27,22,100,77,54,30.18,30.04,29.84,10,8,1,25,12,34,T,4,Snow,341
2014-3-13,62,43,24,34,27,20,84,58,32,30.17,30.02,29.83,10,10,10,16,10,23,0.00,1,,191
2014-3-14,60,45,30,31,26,21,69,48,26,30.02,29.85,29.72,10,10,10,25,13,37,0.00,0,,264
2014-3-15,65,46,27,34,28,21,76,53,30,30.09,30.01,29.91,10,10,10,31,12,39,0.00,0,,87
2014-3-16,36,26,15,29,22,11,92,77,62,30.32,30.19,30.11,10,6,0,31,17,38,0.14,6,Fog-Snow,38
2014-3-17,44,28,12,24,17,9,92,66,39,30.14,29.90,29.72,10,10,10,18,8,22,0.00,0,,151
2014-3-18,61,45,28,39,32,22,76,56,36,29.72,29.61,29.52,10,10,10,26,10,32,T,3,Rain,156
2014-3-19,47,38,28,39,30,22,89,67,45,30.14,29.93,29.56,10,8,4,25,12,34,T,5,Rain,298
2014-3-20,67,46,24,33,27,20,81,52,22,30.11,30.00,29.87,10,10,10,17,7,24,0.00,1,,221
2014-3-21,64,47,30,34,30,27,89,61,32,30.11,29.89,29.81,10,10,7,23,11,32,0.00,0,,312
2014-3-22,42,34,26,27,19,11,78,54,29,30.47,30.28,30.12,10,10,10,20,13,25,0.00,3,,346
2014-3-23,39,29,18,14,9,4,68,46,24,30.56,30.48,30.39,10,10,10,17,8,21,0.00,2,,11
2014-3-24,39,31,23,28,19,12,92,65,38,30.42,30.28,30.18,10,8,1,13,7,17,0.02,7,Snow,306
2014-3-25,35,27,19,25,14,6,96,63,29,30.36,30.29,30.22,10,10,7,23,10,31,0.00,2,,311
2014-3-26,53,36,18,36,19,10,80,51,22,30.31,30.09,29.85,10,10,9,30,16,40,0.05,3,Rain,162
2014-3-27,62,50,38,52,41,33,92,82,72,29.84,29.59,29.36,10,8,3,31,16,42,0.11,7,Rain-Thunderstorm,189
2014-3-28,44,40,36,33,32,31,89,77,65,30.21,30.06,29.76,10,8,4,18,7,24,0.00,8,,353
2014-3-29,55,44,32,31,29,27,82,60,38,30.30,30.25,30.21,10,9,4,15,8,20,0.00,3,,17
2014-3-30,72,51,29,35,29,22,92,54,16,30.26,30.07,29.90,10,8,5,25,14,31,0.00,0,,167
2014-3-31,73,55,36,51,41,32,80,56,31,29.90,29.73,29.60,10,9,4,31,19,44,0.12,2,Rain-Thunderstorm,190